| time (UTC) | temp C | wind direction | speed KPH | gust KPH | rain 1hr cm | rain 24hr cm | rain mn cm | humidity % | barometer mb |
| 20260903101605 | 21 | 0 | 0.0 | 0.0 | 0.00 | 0.00 | 0.00 | 94 | 1017.4 |
| 20260903100104 | 21 | 0 | 0.0 | 0.0 | 0.00 | 0.00 | 0.00 | 94 | 1017.3 |
| 20260903094602 | 21 | 0 | 0.0 | 0.0 | 0.00 | 0.00 | 0.00 | 94 | 1017.3 |
| 20260903093104 | 21 | 0 | 0.0 | 0.0 | 0.00 | 0.00 | 0.00 | 94 | 1017.3 |
| 20260903091605 | 21 | 0 | 0.0 | 0.0 | 0.00 | 0.00 | 0.00 | 94 | 1017.3 |
| 20260903090106 | 21 | 0 | 0.0 | 1.6 | 0.00 | 0.00 | 0.00 | 94 | 1017.2 |
| 20260903084604 | 21 | 0 | 0.0 | 1.6 | 0.00 | 0.00 | 0.00 | 94 | 1017.3 |
| 20260903083114 | 22 | 0 | 0.0 | 0.0 | 0.00 | 0.00 | 0.00 | 94 | 1017.3 |
| 20260903081607 | 22 | 0 | 0.0 | 1.6 | 0.00 | 0.00 | 0.00 | 94 | 1017.2 |
| 20260903080115 | 22 | 0 | 0.0 | 0.0 | 0.00 | 0.00 | 0.00 | 94 | 1017.3 |
| 20260903074638 | 22 | 0 | 0.0 | 0.0 | 0.00 | 0.00 | 0.00 | 94 | 1017.1 |
| 20260903073116 | 22 | 0 | 0.0 | 0.0 | 0.00 | 0.00 | 0.00 | 94 | 1017.0 |
| 20260903071605 | 22 | 0 | 0.0 | 0.0 | 0.00 | 0.00 | 0.00 | 94 | 1016.9 |
| 20260903070114 | 22 | 0 | 0.0 | 0.0 | 0.00 | 0.00 | 0.00 | 94 | 1017.0 |
| 20260903064603 | 22 | 0 | 0.0 | 0.0 | 0.00 | 0.00 | 0.00 | 94 | 1017.1 |
| 20260903063110 | 22 | 0 | 0.0 | 0.0 | 0.00 | 0.00 | 0.00 | 94 | 1017.1 |
| 20260903061615 | 22 | 0 | 0.0 | 1.6 | 0.00 | 0.00 | 0.00 | 94 | 1017.0 |
| 20260903060107 | 22 | 0 | 0.0 | 0.0 | 0.00 | 0.00 | 0.00 | 94 | 1016.9 |
| 20260903054605 | 22 | 0 | 0.0 | 0.0 | 0.00 | 0.00 | 0.00 | 93 | 1016.9 |
| 20260903053104 | 23 | 0 | 0.0 | 1.6 | 0.00 | 0.00 | 0.00 | 93 | 1017.0 |
| 20260903051607 | 23 | 0 | 0.0 | 0.0 | 0.00 | 0.00 | 0.00 | 93 | 1017.0 |
| 20260903044604 | 23 | 0 | 0.0 | 0.0 | 0.00 | 0.00 | 0.00 | 93 | 1016.7 |
| 20260903043103 | 23 | 0 | 0.0 | 0.0 | 0.00 | 0.00 | 0.00 | 93 | 1016.8 |
| 20260903041637 | 23 | 0 | 0.0 | 0.0 | 0.00 | 0.00 | 0.00 | 93 | 1016.8 |
| 20260903040105 | 23 | 0 | 0.0 | 1.6 | 0.00 | 0.00 | 0.00 | 93 | 1016.9 |
| 20260903034602 | 23 | 0 | 0.0 | 0.0 | 0.00 | 0.00 | 0.00 | 93 | 1016.8 |
| 20260903033102 | 23 | 0 | 0.0 | 0.0 | 0.00 | 0.00 | 0.00 | 93 | 1017.0 |
| 20260903031610 | 24 | 0 | 0.0 | 1.6 | 0.00 | 0.00 | 0.00 | 93 | 1017.0 |
| 20260903030105 | 24 | 0 | 0.0 | 0.0 | 0.00 | 0.00 | 0.00 | 93 | 1017.2 |
| 20260903024604 | 24 | 0 | 0.0 | 0.0 | 0.00 | 0.00 | 0.00 | 93 | 1017.1 |
| 20260903023115 | 24 | 0 | 0.0 | 0.0 | 0.00 | 0.00 | 0.00 | 92 | 1017.0 |
| 20260903021604 | 25 | 0 | 0.0 | 0.0 | 0.00 | 0.00 | 0.00 | 92 | 1016.9 |
| 20260903020120 | 25 | 0 | 0.0 | 1.6 | 0.00 | 0.00 | 0.00 | 92 | 1017.1 |
| 20260903014622 | 25 | 0 | 0.0 | 0.0 | 0.00 | 0.00 | 0.00 | 92 | 1016.9 |
| 20260903013115 | 25 | 0 | 0.0 | 0.0 | 0.00 | 0.00 | 0.00 | 92 | 1016.9 |
| 20260903011624 | 25 | 0 | 0.0 | 0.0 | 0.00 | 0.00 | 0.00 | 91 | 1016.8 |
| 20260903010113 | 25 | 0 | 0.0 | 0.0 | 0.00 | 0.00 | 0.00 | 91 | 1016.5 |
| 20260903004608 | 26 | 0 | 0.0 | 0.0 | 0.00 | 0.00 | 0.00 | 91 | 1016.3 |
| 20260903003127 | 26 | 0 | 0.0 | 0.0 | 0.00 | 0.00 | 0.00 | 90 | 1016.2 |
| 20260903001605 | 26 | 0 | 0.0 | 0.0 | 0.00 | 0.00 | 0.00 | 90 | 1016.1 |
| 20260903000108 | 27 | 0 | 0.0 | 0.0 | 0.00 | 0.00 | 0.00 | 89 | 1016.2 |
| 20260902234610 | 27 | 0 | 0.0 | 0.0 | 0.00 | 0.00 | 0.00 | 88 | 1016.1 |
| 20260902233104 | 27 | 0 | 0.0 | 0.0 | 0.00 | 0.00 | 0.00 | 86 | 1016.1 |
| 20260902231603 | 28 | 0 | 0.0 | 0.0 | 0.00 | 0.00 | 0.00 | 83 | 1016.3 |
| 20260902230106 | 29 | 0 | 0.0 | 1.6 | 0.00 | 0.00 | 0.00 | 79 | 1016.3 |
| 20260902224625 | 30 | 213 | 0.0 | 3.2 | 0.00 | 0.00 | 0.00 | 76 | 1016.3 |
| 20260902223107 | 31 | 0 | 0.0 | 3.2 | 0.00 | 0.00 | 0.00 | 74 | 1016.3 |
| 20260902221608 | 32 | 213 | 0.0 | 3.2 | 0.00 | 0.00 | 0.00 | 72 | 1016.3 |
| 20260902220119 | 32 | 0 | 0.0 | 3.2 | 0.00 | 0.00 | 0.00 | 72 | 1016.3 |
| 20260902214616 | 32 | 213 | 0.0 | 3.2 | 0.00 | 0.00 | 0.00 | 71 | 1016.4 |
| 20260902213106 | 32 | 213 | 0.0 | 3.2 | 0.00 | 0.00 | 0.00 | 71 | 1016.4 |
| 20260902211602 | 33 | 0 | 0.0 | 4.8 | 0.00 | 0.00 | 0.00 | 69 | 1016.5 |
| 20260902210121 | 33 | 0 | 1.6 | 4.8 | 0.00 | 0.00 | 0.00 | 67 | 1016.5 |
| 20260902204623 | 33 | 0 | 0.0 | 4.8 | 0.00 | 0.00 | 0.00 | 64 | 1016.6 |
| 20260902203125 | 33 | 273 | 0.0 | 6.4 | 0.00 | 0.00 | 0.00 | 65 | 1016.8 |
| 20260902201614 | 33 | 0 | 1.6 | 4.8 | 0.00 | 0.00 | 0.00 | 65 | 1017.0 |
| 20260902200115 | 33 | 202 | 0.0 | 4.8 | 0.00 | 0.00 | 0.00 | 64 | 1017.2 |
| 20260902194603 | 34 | 173 | 1.6 | 9.7 | 0.00 | 0.00 | 0.00 | 62 | 1017.3 |
| 20260902193106 | 34 | 163 | 0.0 | 6.4 | 0.00 | 0.00 | 0.00 | 67 | 1017.4 |
| 20260902191613 | 35 | 208 | 1.6 | 11.3 | 0.00 | 0.00 | 0.00 | 58 | 1017.5 |
| 20260902184658 | 34 | 200 | 1.6 | 6.4 | 0.00 | 0.13 | 0.00 | 59 | 1017.7 |
| 20260902183105 | 34 | 0 | 3.2 | 11.3 | 0.00 | 0.13 | 0.00 | 57 | 1017.8 |
| 20260902181604 | 33 | 190 | 1.6 | 4.8 | 0.00 | 0.13 | 0.00 | 62 | 1017.9 |
| 20260902180105 | 33 | 312 | 1.6 | 8.0 | 0.00 | 0.13 | 0.00 | 60 | 1018.1 |
| 20260902174608 | 33 | 117 | 1.6 | 6.4 | 0.00 | 0.38 | 0.00 | 61 | 1018.4 |
| 20260902173105 | 33 | 132 | 1.6 | 4.8 | 0.00 | 0.38 | 0.00 | 60 | 1018.4 |
| 20260902171606 | 33 | 163 | 1.6 | 12.9 | 0.00 | 0.38 | 0.00 | 67 | 1018.7 |
| 20260902170106 | 33 | 321 | 1.6 | 6.4 | 0.00 | 0.38 | 0.00 | 71 | 1018.9 |
| 20260902164612 | 32 | 238 | 1.6 | 11.3 | 0.00 | 0.38 | 0.00 | 73 | 1019.2 |
| 20260902163104 | 32 | 0 | 1.6 | 6.4 | 0.00 | 0.38 | 0.00 | 73 | 1019.4 |
| 20260902161600 | 32 | 0 | 1.6 | 6.4 | 0.00 | 0.38 | 0.00 | 77 | 1019.7 |
| 20260902160121 | 31 | 263 | 1.6 | 6.4 | 0.00 | 0.38 | 0.00 | 73 | 1019.7 |
| 20260902154606 | 31 | 167 | 0.0 | 6.4 | 0.00 | 0.38 | 0.00 | 78 | 1019.8 |
| 20260902153103 | 30 | 196 | 1.6 | 8.0 | 0.00 | 0.38 | 0.00 | 78 | 1019.8 |
| 20260902151615 | 29 | 158 | 1.6 | 4.8 | 0.00 | 0.38 | 0.00 | 82 | 1019.7 |
| 20260902144601 | 27 | 180 | 1.6 | 3.2 | 0.00 | 0.38 | 0.00 | 93 | 1019.5 |
| 20260902143109 | 26 | 180 | 0.0 | 3.2 | 0.00 | 0.38 | 0.00 | 95 | 1019.6 |
| 20260902141606 | 25 | 180 | 0.0 | 3.2 | 0.00 | 0.38 | 0.00 | 95 | 1019.5 |
| 20260902140100 | 24 | 180 | 1.6 | 3.2 | 0.00 | 0.38 | 0.00 | 95 | 1019.6 |
| 20260902134611 | 23 | 180 | 0.0 | 3.2 | 0.00 | 0.38 | 0.00 | 96 | 1019.4 |
| 20260902133108 | 22 | 203 | 0.0 | 3.2 | 0.00 | 0.38 | 0.00 | 95 | 1019.3 |
| 20260902131607 | 22 | 250 | 0.0 | 1.6 | 0.00 | 0.38 | 0.00 | 95 | 1019.4 |
| 20260902124606 | 21 | 0 | 0.0 | 1.6 | 0.00 | 0.38 | 0.00 | 95 | 1019.4 |
| 20260902123105 | 20 | 0 | 0.0 | 0.0 | 0.00 | 0.38 | 0.00 | 95 | 1019.4 |
| 20260902121603 | 20 | 0 | 0.0 | 0.0 | 0.00 | 0.38 | 0.00 | 95 | 1019.4 |
| 20260902114602 | 20 | 0 | 0.0 | 0.0 | 0.00 | 0.38 | 0.00 | 94 | 1019.2 |
| 20260902113104 | 20 | 0 | 0.0 | 0.0 | 0.00 | 0.38 | 0.00 | 94 | 1019.0 |
| 20260902111601 | 20 | 0 | 0.0 | 1.6 | 0.00 | 0.38 | 0.00 | 94 | 1018.9 |
| 20260902110104 | 20 | 0 | 0.0 | 0.0 | 0.00 | 0.38 | 0.00 | 94 | 1018.9 |
| 20260902104622 | 20 | 0 | 0.0 | 0.0 | 0.00 | 0.38 | 0.00 | 94 | 1018.9 |
| 20260902103058 | 20 | 0 | 0.0 | 0.0 | 0.00 | 0.38 | 0.00 | 94 | 1018.9 |